SBI3750 LTFM-UUDD

Flight info

Callsign SBI3750
Flight time N/A
Altitude 35000
Route EKAWE1D/35L EKAWE UT641 ABSAX UN743 ODIRA/K0846F350 G487 ERSAR DCT BEMES DCT VULFI DCT TUVGI DCT EVZUN DCT ZIZAR DCT VAZLU DCT UZZID DCT NOKLI N72 WGD G481 OBABI DCT VUVNE DCT GEKPA L736 OLOPI OLOPI3N
Aircraft A320/M-SDE3FGHIRWY/LB1

Departure

Time 2026-05-06 17:15
Airport İstanbul Airport (LTFM)

Arrival

Time N/A
Airport Domodedovo International Airport (UUDD)
Time Latitude Longitude Altitude Speed Heading
2026-05-06 16:52 41.26555 28.73510 334 ft 0 kts 74°
2026-05-06 16:59 41.26555 28.73509 334 ft 0 kts 74°
2026-05-06 17:06 41.26554 28.73506 329 ft 2 kts 74°
2026-05-06 17:06 41.26550 28.73485 333 ft 2 kts 75°
2026-05-06 17:07 41.26546 28.73464 329 ft 2 kts 90°
2026-05-06 17:07 41.26546 28.73441 331 ft 2 kts 44°
2026-05-06 17:07 41.26534 28.73427 331 ft 2 kts 33°
2026-05-06 17:07 41.26519 28.73416 332 ft 2 kts 24°
2026-05-06 17:08 41.26504 28.73408 332 ft 2 kts 13°
2026-05-06 17:08 41.26490 28.73404 330 ft 1 kts 354°
2026-05-06 17:08 41.26487 28.73404 330 ft 0 kts 345°
2026-05-06 17:10 41.26503 28.73395 333 ft 7 kts 339°
2026-05-06 17:10 41.26553 28.73372 331 ft 11 kts 342°
2026-05-06 17:11 41.26592 28.73339 333 ft 6 kts 298°
2026-05-06 17:11 41.26597 28.73259 331 ft 11 kts 267°
2026-05-06 17:11 41.26588 28.73148 333 ft 13 kts 236°
2026-05-06 17:11 41.26493 28.73119 329 ft 16 kts 174°
2026-05-06 17:12 41.26376 28.73119 334 ft 16 kts 181°
2026-05-06 17:12 41.26291 28.73123 334 ft 10 kts 179°
2026-05-06 17:13 41.26211 28.73018 330 ft 3 kts 281°
2026-05-06 17:13 41.26213 28.72997 332 ft 1 kts 275°
2026-05-06 17:13 41.26213 28.72958 334 ft 13 kts 269°
2026-05-06 17:13 41.26210 28.72745 329 ft 27 kts 269°
2026-05-06 17:14 41.26209 28.72577 330 ft 15 kts 270°
2026-05-06 17:14 41.26239 28.72518 332 ft 6 kts 340°
2026-05-06 17:14 41.26254 28.72519 334 ft 2 kts 357°
2026-05-06 17:14 41.26441 28.72513 332 ft 61 kts
2026-05-06 17:15 41.27082 28.72508 332 ft 120 kts
2026-05-06 17:15 41.28080 28.72486 336 ft 165 kts
2026-05-06 17:15 41.29289 28.72464 738 ft 176 kts 359°
2026-05-06 17:15 41.30529 28.72376 1379 ft 180 kts 358°
2026-05-06 17:16 41.31772 28.72342 2125 ft 177 kts 359°
2026-05-06 17:16 41.33028 28.72365 2523 ft 188 kts 355°
2026-05-06 17:16 41.34383 28.72450 2753 ft 204 kts 352°
2026-05-06 17:16 41.35877 28.72564 2975 ft 225 kts
2026-05-06 17:17 41.37499 28.72601 3274 ft 245 kts 353°
2026-05-06 17:17 41.39236 28.72421 3831 ft 254 kts 347°
2026-05-06 17:17 41.40890 28.71630 4676 ft 252 kts 332°
2026-05-06 17:17 41.42411 28.70462 5454 ft 253 kts 330°
2026-05-06 17:18 41.43920 28.69247 6171 ft 255 kts 331°
2026-05-06 17:18 41.45472 28.68076 6849 ft 257 kts 334°
2026-05-06 17:18 41.47061 28.66972 7498 ft 259 kts 334°
2026-05-06 17:18 41.48676 28.65887 8174 ft 261 kts 335°
2026-05-06 17:19 41.50321 28.64813 8867 ft 263 kts 336°
2026-05-06 17:19 41.52061 28.64097 9516 ft 264 kts 354°
2026-05-06 17:19 41.53883 28.64393 10136 ft 268 kts 19°
2026-05-06 17:19 41.55461 28.65752 10697 ft 277 kts 39°
2026-05-06 17:20 41.56483 28.67995 11138 ft 294 kts 63°
2026-05-06 17:20 41.57012 28.70726 11305 ft 315 kts 71°
2026-05-06 17:20 41.57645 28.73627 11433 ft 333 kts 69°
2026-05-06 17:20 41.58380 28.76637 11567 ft 351 kts 68°
2026-05-06 17:21 41.59174 28.79785 11922 ft 360 kts 68°
2026-05-06 17:21 41.59969 28.82974 12459 ft 364 kts 68°
2026-05-06 17:21 41.60753 28.86198 13029 ft 367 kts 69°
2026-05-06 17:21 41.61533 28.89457 13594 ft 370 kts 69°
2026-05-06 17:22 41.62313 28.92744 14123 ft 373 kts 69°
2026-05-06 17:22 41.63087 28.96027 14595 ft 376 kts 69°
2026-05-06 17:22 41.63875 28.99375 15054 ft 379 kts 69°
2026-05-06 17:22 41.64669 29.02742 15538 ft 382 kts 69°
2026-05-06 17:23 41.65469 29.06137 15988 ft 385 kts 70°
2026-05-06 17:23 41.66276 29.09566 16436 ft 388 kts 70°
2026-05-06 17:23 41.67089 29.13026 16879 ft 390 kts 70°
2026-05-06 17:23 41.67906 29.16508 17312 ft 393 kts 70°
2026-05-06 17:24 41.68726 29.20013 17740 ft 396 kts 70°
2026-05-06 17:24 41.69550 29.23550 18170 ft 399 kts 70°
2026-05-06 17:24 41.70375 29.27110 18557 ft 402 kts 70°
2026-05-06 17:24 41.71204 29.30688 18941 ft 404 kts 70°
2026-05-06 17:25 41.72028 29.34252 19304 ft 406 kts 70°
2026-05-06 17:25 41.72877 29.37914 19699 ft 408 kts 70°
2026-05-06 17:25 41.73712 29.41511 20067 ft 410 kts 70°
2026-05-06 17:25 41.74560 29.45158 20442 ft 412 kts 70°
2026-05-06 17:26 41.75409 29.48823 20805 ft 414 kts 71°
2026-05-06 17:26 41.76262 29.52528 21169 ft 416 kts 71°
2026-05-06 17:26 41.77113 29.56236 21515 ft 418 kts 71°
2026-05-06 17:26 41.77969 29.59979 21875 ft 420 kts 71°
2026-05-06 17:27 41.78826 29.63720 22213 ft 422 kts 71°
2026-05-06 17:27 41.79686 29.67489 22558 ft 424 kts 71°
2026-05-06 17:27 41.80552 29.71283 22884 ft 426 kts 71°
2026-05-06 17:27 41.81421 29.75079 23206 ft 428 kts 71°
2026-05-06 17:28 41.82295 29.78905 23525 ft 429 kts 71°
2026-05-06 17:28 41.83171 29.82748 23817 ft 431 kts 71°
2026-05-06 17:28 41.84044 29.86589 24078 ft 433 kts 71°
2026-05-06 17:28 41.84922 29.90467 24345 ft 435 kts 71°
2026-05-06 17:29 41.85799 29.94351 24609 ft 436 kts 71°
2026-05-06 17:29 41.86677 29.98255 24868 ft 438 kts 71°
2026-05-06 17:29 41.87255 30.00827 25050 ft 438 kts 71°
2026-05-06 17:29 41.88424 30.06035 25403 ft 440 kts 71°
2026-05-06 17:30 41.89311 30.09987 25650 ft 442 kts 71°
2026-05-06 17:30 41.89905 30.12642 25825 ft 443 kts 71°
2026-05-06 17:30 41.91081 30.17905 26139 ft 444 kts 71°
2026-05-06 17:30 41.91969 30.21879 26376 ft 446 kts 71°
2026-05-06 17:31 41.92862 30.25870 26602 ft 447 kts 71°
2026-05-06 17:31 41.93467 30.28581 26754 ft 448 kts 71°
2026-05-06 17:31 41.94520 30.33311 27013 ft 450 kts 71°
2026-05-06 17:31 41.95415 30.37348 27224 ft 451 kts 71°
2026-05-06 17:32 41.96309 30.41399 27452 ft 452 kts 71°
2026-05-06 17:32 41.97202 30.45453 27667 ft 454 kts 71°
2026-05-06 17:32 41.98098 30.49526 27882 ft 455 kts 71°
2026-05-06 17:32 41.98996 30.53620 28091 ft 456 kts 71°
2026-05-06 17:33 41.99633 30.57755 28380 ft 459 kts 80°
2026-05-06 17:33 41.99851 30.65842 28935 ft 460 kts 86°
2026-05-06 17:33 41.99879 30.70135 29224 ft 460 kts 86°
2026-05-06 17:34 41.99889 30.71590 29322 ft 459 kts 86°
2026-05-06 17:34 41.99963 30.82887 30094 ft 458 kts 86°
2026-05-06 17:34 41.99986 30.87160 30354 ft 457 kts 86°
2026-05-06 17:35 42.00010 30.92125 30623 ft 456 kts 86°
2026-05-06 17:35 42.00030 30.96386 30853 ft 456 kts 86°
2026-05-06 17:35 42.00118 31.00638 31072 ft 453 kts 81°
2026-05-06 17:36 42.01451 31.08824 31500 ft 448 kts 70°
2026-05-06 17:36 42.02220 31.12892 31714 ft 449 kts 74°
2026-05-06 17:36 42.02867 31.17008 31929 ft 449 kts 75°
2026-05-06 17:36 42.03468 31.21129 32155 ft 449 kts 76°
2026-05-06 17:37 42.04546 31.28904 32550 ft 449 kts 76°
2026-05-06 17:37 42.05112 31.33019 32762 ft 449 kts 76°
2026-05-06 17:37 42.05686 31.37140 32980 ft 448 kts 76°
2026-05-06 17:38 42.06267 31.41256 33194 ft 448 kts 75°
2026-05-06 17:38 42.06850 31.45324 33403 ft 448 kts 75°
2026-05-06 17:38 42.07444 31.49447 33615 ft 447 kts 75°
2026-05-06 17:38 42.08033 31.53556 33822 ft 447 kts 75°
2026-05-06 17:39 42.08618 31.57662 34024 ft 447 kts 75°
2026-05-06 17:39 42.09199 31.61769 34205 ft 447 kts 75°
2026-05-06 17:39 42.09774 31.65881 34374 ft 447 kts 75°
2026-05-06 17:39 42.10346 31.69997 34530 ft 447 kts 75°
2026-05-06 17:40 42.10918 31.74112 34701 ft 447 kts 75°
2026-05-06 17:40 42.11491 31.78235 34821 ft 448 kts 75°
2026-05-06 17:40 42.12066 31.82366 34936 ft 449 kts 75°
2026-05-06 17:40 42.12640 31.86484 35083 ft 449 kts 75°
2026-05-06 17:41 42.13794 31.94765 35121 ft 455 kts 75°
2026-05-06 17:42 42.16103 32.11584 35125 ft 464 kts 76°
2026-05-06 17:42 42.17256 32.20131 35131 ft 464 kts 76°
2026-05-06 17:43 42.18412 32.28695 35124 ft 464 kts 76°
2026-05-06 17:43 42.19560 32.37271 35131 ft 464 kts 76°
2026-05-06 17:44 42.20703 32.45817 35137 ft 465 kts 76°
2026-05-06 17:44 42.21841 32.54409 35142 ft 465 kts 76°
2026-05-06 17:45 42.22972 32.62993 35153 ft 465 kts 76°
2026-05-06 17:45 42.24097 32.71606 35153 ft 465 kts 76°
2026-05-06 17:46 42.25216 32.80207 35156 ft 465 kts 76°
2026-05-06 17:46 42.26328 32.88813 35154 ft 465 kts 76°
2026-05-06 17:47 42.27443 32.97425 35151 ft 465 kts 76°
2026-05-06 17:47 42.28513 33.05772 35159 ft 465 kts 77°
2026-05-06 17:48 42.29606 33.14401 35130 ft 466 kts 77°
2026-05-06 17:48 42.30691 33.23022 35135 ft 466 kts 77°
2026-05-06 17:49 42.31771 33.31611 35141 ft 466 kts 77°
2026-05-06 17:49 42.32856 33.40259 35156 ft 467 kts 77°
2026-05-06 17:50 42.33932 33.48916 35158 ft 467 kts 77°
2026-05-06 17:50 42.34986 33.57559 35157 ft 466 kts 78°
2026-05-06 17:51 42.36039 33.66215 35158 ft 466 kts 78°
2026-05-06 17:51 42.37091 33.74863 35161 ft 466 kts 78°
2026-05-06 17:52 42.38144 33.83533 35164 ft 466 kts 78°
2026-05-06 17:52 42.39185 33.92185 35168 ft 466 kts 78°
2026-05-06 17:53 42.40213 34.00849 35167 ft 466 kts 78°
2026-05-06 17:53 42.41239 34.09521 35170 ft 466 kts 78°
2026-05-06 17:54 42.42265 34.18188 35170 ft 466 kts 78°
2026-05-06 17:54 42.43276 34.26853 35169 ft 466 kts 78°
2026-05-06 17:55 42.44277 34.35544 35169 ft 466 kts 78°
2026-05-06 17:55 42.45276 34.44211 35172 ft 466 kts 78°
2026-05-06 17:56 42.46273 34.52903 35175 ft 466 kts 79°
2026-05-06 17:56 42.46930 34.58676 35173 ft 466 kts 79°
2026-05-06 17:57 42.47702 34.65494 35172 ft 466 kts 79°
2026-05-06 17:57 42.49170 34.78601 35172 ft 466 kts 79°
2026-05-06 17:58 42.50139 34.87274 35171 ft 466 kts 79°
2026-05-06 17:58 42.50296 34.88686 35171 ft 466 kts 79°
2026-05-06 17:59 42.51960 35.03806 35176 ft 465 kts 79°
2026-05-06 17:59 42.52908 35.12490 35176 ft 465 kts 79°
2026-05-06 18:00 42.53847 35.21185 35177 ft 465 kts 80°
2026-05-06 18:00 42.54772 35.29856 35176 ft 465 kts 80°
2026-05-06 18:01 42.55701 35.38524 35177 ft 464 kts 80°
2026-05-06 18:01 42.56626 35.47195 35173 ft 464 kts 80°
2026-05-06 18:02 42.57535 35.55888 35175 ft 464 kts 80°
2026-05-06 18:02 42.58434 35.64563 35174 ft 465 kts 80°
2026-05-06 18:03 42.59335 35.73250 35174 ft 465 kts 81°
2026-05-06 18:03 42.60227 35.81934 35170 ft 465 kts 81°
2026-05-06 18:04 42.61112 35.90635 35169 ft 465 kts 81°
2026-05-06 18:04 42.61992 35.99349 35166 ft 466 kts 81°
2026-05-06 18:05 42.62864 36.07991 35168 ft 466 kts 81°
2026-05-06 18:05 42.63734 36.16724 35172 ft 466 kts 81°
2026-05-06 18:06 42.64598 36.25452 35174 ft 466 kts 81°
2026-05-06 18:06 42.65446 36.34172 35172 ft 466 kts 82°
2026-05-06 18:07 42.66294 36.42899 35172 ft 466 kts 82°
2026-05-06 18:07 42.67138 36.51632 35172 ft 466 kts 82°
2026-05-06 18:08 42.67976 36.60362 35172 ft 466 kts 82°
2026-05-06 18:08 42.68801 36.69085 35162 ft 466 kts 82°
2026-05-06 18:09 42.69211 36.73456 34898 ft 466 kts 82°
2026-05-06 18:09 42.69620 36.77832 34595 ft 465 kts 82°